map of CXR home
Great Circle Mapper logo
CXR - Airport
Location
City:  Nha Trang, Vietnam
Near (Alt.):Cam Ranh
Name:Cam Ranh International Airport
ICAO / IATA:VVCR / CXR

Details
Type:Airport (Aerodrome, Airfield)
Use:Public/Civil, International (customs port of entry)
Latitude:1159'53"N (11.998153)
Longitude:10913'10"E (109.219372)
Datum:WGS 1984
Elevation:40 ft (12 m)
Variation:0.6W (WMM2015 magnetic declination)
Runways:1
Longest:10000 × 150 ft (3048 × 45.5 m), paved

Time
Time Zone:UTC+7
Local Time:

Weather
METAR:VVCR 221130Z 05017KT 7000 -RA SCT013 BKN050 25/20 Q1013 NOSIG
TAF:VVCR 212300Z 2200/2224 05017KT 8000 FEW015 BKN050
TEMPO 2200/2203 4500 RA

Related Locations
Nearby:
Farthest:SPNU: 12443 mi / 20025 km
Manu, PE

Find:

   beyond  
but within

Other Information
Maps:
NOTAMs:
Links:
Sources:

  
flag of Vietnam   

Sectional Chart

Flight Planning
at skyvector.com

Satellite Image

Google Maps Satellite View

 

Copyright © 2004-2014 Karl L. Swartz. All rights reserved.
The Great Circle Mapper name and logo are trademarks of the Great Circle Mapper.
All other trademarks mentioned herein belong to their respective owners.
Please see credits for attibutions and further copyright information.

  Follow gcmap on Facebook Follow gcmap on Twitter

hCard Microformat

Geo Microformat